User: anonymous   Login
Location: Unspecified
(0.0000°N, 0.0000°E)
Time: 15:49:10
(UTC+00:00)
Language:

ECS 2 - Orbit

View from above orbital plane
View from above orbital plane
View from above satellite
View from above satellite

Ground track
Ground track

The orbit data is extracted from the following two-line orbital elements,

1 15158U 84081A   18202.78255612 -.00000240 +00000-0 +00000-0 0  9997
2 15158 015.3294 356.5462 0007402 150.5737 032.6802 00.98797815088739
Epoch (UTC): 21 July 2018 18:46:52
Eccentricity: 0.0007402
inclination: 15.3294°
perigee height: 36173 km
apogee height: 36236 km
right ascension of ascending node: 356.5462°
argument of perigee: 150.5737°
revolutions per day: 0.98797815
mean anomaly at epoch: 32.6802°
orbit number at epoch: 8873

The dashed part of the orbit path shows where the satellite is in the earth's shadow,  

DLR